Regional Weather Roundup
Issued by NWS

Home | Current Version | Previous Version | Graphics & Text | Print | Product List | Glossary On
Versions: 1 2 3 4 5 6 7 8 9 10 11 12 13 14 15 16 17 18 19 20 21 22 23 24 25 26 27 28 29 30 31 32 33 34 35 36 37 38 39 40 41 42 43 44 45 46 47 48 49 50
000
ASUS43 KOAX 232202
RWRNE

WEATHER ROUNDUP FOR NEBRASKA
NATIONAL WEATHER SERVICE OMAHA NE
500 PM CDT THU OCT 23 2014

NOTES: SATELLITE DATA IS BEING USED TO AUGMENT CLOUD COVER ABOVE
       12000 FEET.
       "FAIR" INDICATES FEW OR NO CLOUDS BELOW 12,000 FEET WITH NO
       SIGNIFICANT WEATHER AND/OR OBSTRUCTIONS TO VISIBILITY.

  * THESE STATIONS DO NOT REPORT WEATHER SUCH AS RAIN...SNOW OR FOG.

NEZ001>004-019>022-054>056-232300-
NEBRASKA PANHANDLE

CITY           SKY/WX    TMP DP  RH WIND       PRES   REMARKS
SCOTTSBLUFF    MOSUNNY   76  31  19 W17G23    29.98F
ALLIANCE       PTSUNNY   73  31  21 W12       29.97F
CHADRON        MOSUNNY   74  36  25 W7        29.91F
KIMBALL        MOSUNNY   72  31  22 W13       30.05S
SIDNEY         MOSUNNY   72  36  26 W15       30.04F
$$

NEZ057>060-069>072-079>082-232300-
SOUTHWEST NEBRASKA

CITY           SKY/WX    TMP DP  RH WIND       PRES   REMARKS
NORTH PLATTE   CLOUDY    74  40  29 SW12      29.97F
IMPERIAL       MOSUNNY   78  34  20 W9        30.00F
LEXINGTON      CLOUDY    70  53  54 S12       30.01F
MCCOOK         PTSUNNY   74  42  31 S13       30.01F
OGALLALA       PTSUNNY   78  35  20 W10       29.99S
$$

NEZ005>010-023>029-035>040-094-232300-
NORTH CENTRAL NEBRASKA

CITY           SKY/WX    TMP DP  RH WIND       PRES   REMARKS
VALENTINE      PTSUNNY   74  31  20 SW9       29.92F
AINSWORTH      CLOUDY    71  35  26 SW9       29.94S
BROKEN BOW     CLOUDY    69  49  48 S12       29.98F
O`NEILL        MOSUNNY   72  45  37 SW13G18   29.95F
ORD            PTSUNNY   70  47  43 SW12      29.97S
THEDFORD       PTSUNNY   75  36  24 SW12G17   29.96F
$$

NEZ041-046>049-061>064-073>077-083>087-232300-
SOUTH CENTRAL NEBRASKA

CITY           SKY/WX    TMP DP  RH WIND       PRES   REMARKS
GRAND ISLAND   MOSUNNY   64  55  72 S8        30.01F
AURORA         SUNNY     65  56  72 SW9       30.02S
HASTINGS       MOSUNNY   62  53  72 S5        30.03S
HEBRON         SUNNY     73  54  52 W8        30.02R
HOLDREGE       CLOUDY    60  55  81 CALM      30.02S HAZE
KEARNEY *      PTSUNNY   63  55  77 S13       30.02F
YORK           SUNNY     70  52  52 SW8       30.02S
$$

NEZ011>018-030>034-042>045-232300-
NORTHEAST NEBRASKA

CITY           SKY/WX    TMP DP  RH WIND       PRES   REMARKS
NORFOLK        SUNNY     69  46  43 S14       29.98F
ALBION         SUNNY     68  50  52 S12       29.99S
BLAIR          SUNNY     71  48  44 S3        30.01S
COLUMBUS *     SUNNY     70  50  49 S9        30.02S
FREMONT        SUNNY     72  46  40 S7        30.01S
TEKAMAH        SUNNY     72  47  40 S7        29.99S
WAYNE          SUNNY     70  46  40 SW15      29.99S
$$

NEZ050>053-065>068-078-088>093-232300-
SOUTHEAST NEBRASKA

CITY           SKY/WX    TMP DP  RH WIND       PRES   REMARKS
LINCOLN        SUNNY     72  51  47 SE5       30.01F
OMAHA EPPLEY   SUNNY     71  43  36 S3        30.01S
BEATRICE       SUNNY     73  53  49 S5        30.01S
FALLS CITY     SUNNY     73  52  47 VRB3      30.01S
NEBRASKA CITY  SUNNY     71  38  29 CALM      30.02R
PLATTSMOUTH    SUNNY     70  49  47 CALM      30.01F
$$

NEZ044-045-051>053-067-232300-
OMAHA AREA

CITY           SKY/WX    TMP DP  RH WIND       PRES   REMARKS
OMAHA EPPLEY   SUNNY     71  43  36 S3        30.01S
BLAIR          SUNNY     71  48  44 S3        30.01S
FREMONT        SUNNY     72  46  40 S7        30.01S
MILLARD        SUNNY     70  53  54 S3        30.01S
OFFUTT AFB     SUNNY     71  49  44 SE3       30.00F
PLATTSMOUTH    SUNNY     70  49  47 CALM      30.01F
WAHOO          FAIR      71  43  36 S8        30.01S
$$



USA.gov is the U.S. government's official web portal to all federal, state and local government web resources and services.